Regional Weather Roundup
Issued by NWS

Home | Current Version | Previous Version | Text Only | Print | Product List | Glossary Off
Versions: 1 2 3 4 5 6 7 8 9 10 11 12 13 14 15 16 17 18 19 20 21 22 23 24 25 26 27

000
ASUS45 KCYS 231310
RWRWY

WYOMING REGIONAL WEATHER ROUNDUP
NATIONAL WEATHER SERVICE CHEYENNE WY
700 AM MDT SUN JUL 23 2017

NOTE:  "FAIR" INDICATES FEW OR NO CLOUDS BELOW 12,000 FEET
WITH NO SIGNIFICANT WEATHER AND/OR OBSTRUCTIONS TO VISIBILITY.

WYZ001-231400-
YELLOWSTONE NATIONAL PARK

CITY           SKY/WX    TMP DP  RH WIND       PRES   REMARKS
LK YELLOWSTONE   N/A     40  37  89 NW3       30.41R
W YELLOWSTONE  NOT AVBL

$$
WYZ002>013-054>058-071-098>099-231400-
NORTHERN WYOMING

CITY           SKY/WX    TMP DP  RH WIND       PRES   REMARKS
JACKSON        CLEAR     45  37  76 CALM      30.33R
CODY           FAIR      65  35  33 SW7       30.20R
GREYBULL       FAIR      56  43  61 CALM      30.11R
WORLAND        FAIR      58  36  43 SW3       30.13R
SHERIDAN       FAIR      56  44  64 CALM      30.12R
BUFFALO        FAIR      65  36  34 CALM      30.17S
GILLETTE       FAIR      66  41  40 VRB5      30.14R
HULETT         FAIR      63  43  48 CALM      30.16S
NEWCASTLE      FAIR      63  41  45 CALM      30.16R

$$
WYZ014>020-022>026-101>103-231400-
CENTRAL WYOMING

CITY           SKY/WX    TMP DP  RH WIND       PRES   REMARKS
BIG PINEY      FAIR      46  36  68 CALM      30.33R
PINEDALE       FAIR      45  39  81 W6        30.34S
DUBOIS         FAIR      48  32  53 NW13      30.35S
LANDER         FAIR      65  34  31 W6        30.23S
RIVERTON       FAIR      61  39  44 N6        30.21R
CASPER         FAIR      57  37  47 CALM      30.21S
DOUGLAS        FAIR      58  51  78 NW5       30.20R

$$
WYZ021-027>030-104>119-231400-
SOUTHERN WYOMING

CITY           SKY/WX    TMP DP  RH WIND       PRES   REMARKS
EVANSTON       FAIR      59  34  39 NE3       30.30S
KEMMERER         N/A     48  34  57 N14       30.33S
FORT BRIDGER   FAIR      61  30  31 S3        30.33R
ROCK SPRINGS   FAIR      63  30  28 CALM      30.29R
RAWLINS        FAIR      56  35  45 CALM      30.31R
SARATOGA       FAIR      59  37  44 SE10      30.33S
LARAMIE        FAIR      50  45  83 S6        30.34S
CHEYENNE       FAIR      60  49  66 W8        30.26R
TORRINGTON     FAIR      63  53  70 NW3       30.13R
PINE BLUFFS    FAIR      54  50  87 SW3       30.21S

$$




USA.gov is the U.S. government's official web portal to all federal, state and local government web resources and services.